EB5CGD-3 Weather Reports


time (UTC)temp
F
wind
direction
speed
knots
gust
knots
rain 1hr
in
rain 24hr
in
rain mn
in
humidity
%
barometer
mb
20220524024106 66 293 2.6 3.5 0.00 0.00 0.00 69 1011.7
20220524023103 66 286 2.6 3.5 0.00 0.00 0.00 67 1011.8
20220524022100 66 273 3.5 5.2 0.00 0.00 0.00 67 1011.8
20220524021057 66 274 3.5 5.2 0.00 0.00 0.00 68 1011.7
20220524020055 66 289 2.6 3.5 0.00 0.00 0.00 68 1011.5
20220524015051 67 281 3.5 5.2 0.00 0.00 0.00 67 1011.6
20220524014049 66 293 2.6 3.5 0.00 0.00 0.00 68 1011.6
20220524013046 66 293 3.5 3.5 0.00 0.00 0.00 68 1011.7
20220524012043 66 270 3.5 3.5 0.00 0.00 0.00 68 1011.7
20220524011040 67 270 2.6 3.5 0.00 0.00 0.00 67 1011.8
20220524010037 67 270 2.6 3.5 0.00 0.00 0.00 67 1011.8
20220524005034 67 270 1.7 3.5 0.00 0.00 0.00 67 1011.7
20220524004032 67 279 2.6 3.5 0.00 0.00 0.00 67 1011.8
20220524003028 68 225 0.0 1.7 0.00 0.00 0.00 66 1011.7
20220524002026 69 208 0.9 1.7 0.00 0.00 0.00 65 1011.8
20220524001023 69 152 3.5 5.2 0.00 0.00 0.00 64 1011.8
20220524000027 69 160 5.2 7.0 0.00 0.00 0.00 63 1011.9
20220523235017 70 151 1.7 5.2 0.00 0.00 0.00 60 1011.7
20220523234114 70 266 4.3 6.1 0.00 0.00 0.00 59 1011.6
20220523233111 71 286 3.5 6.1 0.00 0.00 0.00 56 1011.4
20220523232109 70 281 4.3 6.1 0.00 0.00 0.00 59 1011.5
20220523231106 69 288 5.2 7.0 0.00 0.00 0.00 62 1011.4
20220523230103 70 285 4.3 6.1 0.00 0.00 0.00 60 1011.5
20220523225100 71 293 4.3 6.1 0.00 0.00 0.00 58 1011.6
20220523224100 71 293 4.3 6.1 0.00 0.00 0.00 58 1011.5
20220523223055 70 293 5.2 7.0 0.00 0.00 0.00 61 1011.4
20220523222051 72 274 3.5 3.5 0.00 0.00 0.00 57 1011.4
20220523221049 72 293 3.5 5.2 0.00 0.00 0.00 56 1011.4
20220523220046 74 293 4.3 7.0 0.00 0.00 0.00 55 1011.4
20220523215043 74 289 6.1 7.8 0.00 0.00 0.00 55 1011.5
20220523214040 74 307 7.0 9.6 0.00 0.00 0.00 54 1011.2
20220523213037 74 311 6.1 9.6 0.00 0.00 0.00 55 1011.3
20220523212034 74 308 7.0 9.6 0.00 0.00 0.00 55 1011.0
20220523211032 75 307 7.8 11.3 0.00 0.00 0.00 54 1010.9
20220523210029 75 315 7.8 11.3 0.00 0.00 0.00 55 1010.8
20220523205026 75 312 7.8 11.3 0.00 0.00 0.00 56 1010.8
20220523204023 74 311 7.8 11.3 0.00 0.00 0.00 57 1010.8
20220523203020 75 319 7.8 11.3 0.00 0.00 0.00 57 1010.6
20220523202017 75 326 7.0 9.6 0.00 0.00 0.00 57 1010.5
20220523201114 75 307 5.2 9.6 0.00 0.00 0.00 58 1010.5
20220523200112 76 307 4.3 6.1 0.00 0.00 0.00 58 1010.3
20220523195108 75 316 4.3 9.6 0.00 0.00 0.00 59 1010.1
20220523194105 76 296 5.2 7.8 0.00 0.00 0.00 59 1009.9
20220523193103 76 300 5.2 9.6 0.00 0.00 0.00 59 1009.8
20220523192100 77 314 5.2 9.6 0.00 0.00 0.00 58 1009.8
20220523191057 77 321 4.3 7.8 0.00 0.00 0.00 56 1009.6
20220523190054 78 330 4.3 7.8 0.00 0.00 0.00 54 1009.6
20220523185051 79 332 7.0 9.6 0.00 0.00 0.00 53 1009.6
20220523184048 80 343 6.1 11.3 0.00 0.00 0.00 53 1009.4
20220523183045 81 334 7.8 13.0 0.00 0.00 0.00 52 1009.2
20220523182042 83 314 7.0 11.3 0.00 0.00 0.00 51 1009.1
20220523181039 87 338 4.3 7.8 0.00 0.00 0.00 41 1008.8
20220523180037 88 1 3.5 6.1 0.00 0.00 0.00 35 1008.6
20220523175034 90 269 4.3 7.0 0.00 0.00 0.00 28 1008.6
20220523174031 90 266 3.5 6.1 0.00 0.00 0.00 27 1008.5
20220523173028 91 276 4.3 7.8 0.00 0.00 0.00 26 1008.5
20220523172025 91 263 5.2 7.8 0.00 0.00 0.00 26 1008.5
20220523171022 91 272 6.1 11.3 0.00 0.00 0.00 26 1008.5
20220523170019 91 258 6.1 9.6 0.00 0.00 0.00 26 1008.5
20220523165017 91 286 5.2 9.6 0.00 0.00 0.00 27 1008.4
20220523164114 91 261 4.3 9.6 0.00 0.00 0.00 27 1008.5
20220523163111 91 271 8.7 14.8 0.00 0.00 0.00 28 1008.6
20220523162108 90 247 6.1 11.3 0.00 0.00 0.00 28 1008.8
20220523161105 91 266 7.8 13.0 0.00 0.00 0.00 28 1008.8
20220523160102 91 266 7.0 13.0 0.00 0.00 0.00 29 1008.7
20220523155059 91 277 6.1 12.2 0.00 0.00 0.00 29 1008.8
20220523154057 91 273 7.0 14.8 0.00 0.00 0.00 29 1008.9
20220523153054 92 262 6.1 9.6 0.00 0.00 0.00 29 1009.0
20220523152051 91 262 4.3 9.6 0.00 0.00 0.00 28 1008.9
20220523151048 91 265 6.1 13.9 0.00 0.00 0.00 29 1009.0
20220523150045 90 267 6.1 13.0 0.00 0.00 0.00 30 1009.2
20220523145042 89 262 6.1 9.6 0.00 0.00 0.00 30 1009.3
20220523144040 90 272 8.7 13.9 0.00 0.00 0.00 30 1009.4
20220523143037 90 259 8.7 15.6 0.00 0.00 0.00 30 1009.5
20220523142034 90 257 6.1 15.6 0.00 0.00 0.00 30 1009.6
20220523141031 90 285 7.8 21.7 0.00 0.00 0.00 30 1009.8
20220523140028 90 289 7.8 13.0 0.00 0.00 0.00 31 1009.8
20220523135025 90 264 7.8 19.1 0.00 0.00 0.00 31 1009.9
20220523134022 90 249 7.0 13.9 0.00 0.00 0.00 30 1009.8
20220523133019 89 276 7.8 13.9 0.00 0.00 0.00 31 1009.9
20220523132016 90 265 6.1 14.8 0.00 0.00 0.00 30 1009.9
20220523131114 89 264 7.0 17.4 0.00 0.00 0.00 31 1010.1
20220523130111 89 276 5.2 14.8 0.00 0.00 0.00 31 1010.1
20220523125108 90 290 4.3 13.0 0.00 0.00 0.00 31 1010.2
20220523124105 89 285 6.1 12.2 0.00 0.00 0.00 29 1010.4
20220523123102 88 284 7.0 12.2 0.00 0.00 0.00 32 1010.2
20220523122059 88 279 7.0 11.3 0.00 0.00 0.00 32 1010.5
20220523121056 88 266 5.2 9.6 0.00 0.00 0.00 33 1010.5
20220523120053 88 271 3.5 7.0 0.00 0.00 0.00 32 1010.7
20220523115050 86 293 7.8 14.8 0.00 0.00 0.00 34 1010.7
20220523114047 86 262 6.1 11.3 0.00 0.00 0.00 35 1010.8
20220523113045 86 264 6.1 13.9 0.00 0.00 0.00 36 1011.1
20220523112042 86 278 4.3 11.3 0.00 0.00 0.00 35 1011.2
20220523111039 85 266 6.1 9.6 0.00 0.00 0.00 36 1011.3
20220523110036 85 296 6.1 14.8 0.00 0.00 0.00 36 1011.2
20220523105033 84 307 6.1 9.6 0.00 0.00 0.00 37 1011.5
20220523104030 83 297 5.2 9.6 0.00 0.00 0.00 38 1011.5
20220523103027 82 275 8.7 14.8 0.00 0.00 0.00 39 1011.6
20220523102024 82 298 8.7 15.6 0.00 0.00 0.00 41 1011.7
20220523101022 82 280 6.1 12.2 0.00 0.00 0.00 41 1011.8
20220523100019 81 274 7.0 12.2 0.00 0.00 0.00 42 1011.8
20220523095016 81 275 8.7 20.9 0.00 0.00 0.00 42 1011.9
20220523094114 80 284 12.2 19.1 0.00 0.00 0.00 42 1011.9
20220523093111 80 277 11.3 17.4 0.00 0.00 0.00 44 1012.0
20220523092107 80 277 8.7 13.9 0.00 0.00 0.00 44 1011.9
20220523091105 80 278 7.8 13.0 0.00 0.00 0.00 44 1012.0
20220523090102 79 265 8.7 14.8 0.00 0.00 0.00 45 1012.1
20220523085059 79 274 7.8 12.2 0.00 0.00 0.00 46 1012.1
20220523084056 79 269 6.1 12.2 0.00 0.00 0.00 46 1012.1
20220523083054 77 273 7.8 13.9 0.00 0.00 0.00 47 1012.2
20220523082051 76 285 9.6 15.6 0.00 0.00 0.00 48 1012.4
20220523081048 76 265 10.4 15.6 0.00 0.00 0.00 49 1012.3
20220523080045 76 285 11.3 18.2 0.00 0.00 0.00 49 1012.2
20220523075042 75 282 10.4 15.6 0.00 0.00 0.00 50 1012.3
20220523074040 75 304 6.1 13.9 0.00 0.00 0.00 50 1012.2
20220523073037 75 280 6.1 13.9 0.00 0.00 0.00 51 1012.3
20220523072034 74 299 6.1 12.2 0.00 0.00 0.00 52 1012.3
20220523071031 73 289 7.8 13.9 0.00 0.00 0.00 54 1012.3
20220523070028 72 289 7.8 13.9 0.00 0.00 0.00 55 1012.2
20220523065025 72 292 9.6 17.4 0.00 0.00 0.00 57 1012.0
20220523064022 71 289 9.6 18.2 0.00 0.00 0.00 57 1012.3
20220523063019 71 289 6.1 13.0 0.00 0.00 0.00 58 1012.4
20220523062016 71 254 6.1 13.0 0.00 0.00 0.00 58 1012.4
20220523061113 71 298 4.3 9.6 0.00 0.00 0.00 58 1012.1
20220523060111 70 285 7.8 17.4 0.00 0.00 0.00 59 1011.7
20220523055108 69 282 8.7 17.4 0.00 0.00 0.00 61 1011.9
20220523054105 69 283 7.8 13.9 0.00 0.00 0.00 61 1012.2
20220523053102 68 279 7.0 14.8 0.00 0.00 0.00 62 1012.4
20220523052059 68 285 5.2 9.6 0.00 0.00 0.00 62 1012.4
20220523051057 68 279 2.6 5.2 0.00 0.00 0.00 61 1012.3
20220523050054 68 288 5.2 9.6 0.00 0.00 0.00 61 1012.2
20220523045051 69 290 7.0 12.2 0.00 0.00 0.00 60 1011.9
20220523044048 69 276 7.8 13.9 0.00 0.00 0.00 58 1011.8
20220523043045 70 273 7.0 13.9 0.00 0.00 0.00 56 1011.8
20220523042042 71 285 11.3 20.9 0.00 0.00 0.00 55 1011.8
20220523041040 71 274 7.8 15.6 0.00 0.00 0.00 54 1011.9
20220523040037 71 293 8.7 13.9 0.00 0.00 0.00 53 1011.9
20220523035034 72 277 8.7 13.0 0.00 0.00 0.00 52 1011.9
20220523034031 72 289 8.7 14.8 0.00 0.00 0.00 50 1012.0
20220523033028 73 272 7.0 13.0 0.00 0.00 0.00 50 1011.7
20220523032025 73 258 7.0 11.3 0.00 0.00 0.00 49 1011.9
20220523031022 73 263 3.5 6.1 0.00 0.00 0.00 48 1011.7
20220523030019 73 259 3.5 7.0 0.00 0.00 0.00 48 1011.6
20220523025017 73 293 2.6 5.2 0.00 0.00 0.00 49 1011.8